Theta_e
302 302 301 299 298 297 297 298 298 297 298 300 302 303 305 307 310 311 313 316 317 315 318 323 323 321 320 318 317 318 318 318 317 316 316 316 315 316 317 318 319 319 320 321 321 322 321 322 323 323 324 325 324 324 324 323 324 325 323 323 326 331 332 323 319 324 327 327 329 329 327 325 325 327 327 327 330 329 328 333 334 328 325 329 327 324 340
303 303 301 300 298 298 297 297 298 297 298 300 302 303 305 308 312 312 313 318 318 315 318 325 328 326 322 321 321 320 320 319 318 318 317 316 316 316 316 318 319 319 321 321 321 321 321 321 323 323 326 328 326 324 323 323 324 325 324 326 326 326 328 325 320 320 322 324 325 326 327 326 327 331 329 325 330 331 333 339 333 326 329 331 326 327 344
304 303 302 300 299 299 297 297 298 298 298 299 302 304 307 311 314 314 314 317 317 316 317 318 322 324 321 320 322 321 321 321 320 320 319 318 318 318 318 319 318 320 323 321 322 322 321 321 323 327 329 332 332 327 322 324 325 323 327 328 324 327 332 327 320 318 319 320 323 325 328 329 330 333 328 326 330 327 329 333 325 323 330 331 331 335 344
303 303 303 301 300 299 298 297 297 298 298 299 302 306 308 312 318 317 315 315 315 315 314 313 315 319 318 321 324 321 321 322 321 322 321 321 319 318 319 319 319 321 322 322 323 323 323 325 327 332 333 334 339 332 325 327 325 325 333 330 328 338 338 327 323 322 320 323 331 337 335 328 325 327 326 327 328 327 334 332 324 329 333 331 340 345 337
302 303 303 302 301 300 299 298 297 298 298 299 304 308 310 314 318 317 314 315 316 314 313 312 313 315 317 322 324 321 321 322 322 323 323 323 321 319 320 319 319 322 323 324 326 326 329 330 329 332 336 338 338 331 329 333 330 333 341 333 331 338 332 325 329 327 323 327 334 337 333 326 323 325 326 327 326 327 331 328 329 338 331 327 347 354 334
302 302 302 303 302 301 300 298 298 298 298 300 307 310 312 316 318 314 313 315 316 315 314 312 313 314 316 320 322 320 321 322 321 322 321 321 322 320 322 322 321 323 323 325 330 334 333 332 334 339 340 339 337 334 335 335 331 336 341 333 332 333 327 325 328 326 325 327 327 329 330 328 326 326 326 326 326 327 327 328 337 342 329 327 350 354 337
303 302 302 303 303 302 301 299 298 298 297 301 308 311 311 314 315 313 313 314 314 313 313 313 314 315 317 322 324 321 322 321 319 319 319 321 323 323 327 330 329 326 323 326 337 341 334 332 342 347 339 334 335 337 336 333 329 332 334 334 333 328 329 333 326 322 326 326 325 326 326 326 326 326 327 326 326 327 325 330 338 337 332 338 349 350 342
303 302 302 303 303 302 302 300 298 298 297 300 307 309 309 309 311 311 311 312 312 312 312 314 315 315 318 325 326 321 321 320 317 317 317 319 324 328 331 335 332 329 328 330 338 343 338 336 341 341 335 334 337 338 338 335 331 330 332 336 331 325 335 343 330 322 324 324 326 327 325 326 325 324 328 326 325 326 325 330 335 331 333 343 344 343 342
302 302 302 303 303 302 302 301 299 298 297 299 303 306 307 307 309 310 310 311 313 313 313 312 314 317 320 323 322 318 319 319 316 317 318 320 325 330 331 333 332 331 332 332 331 334 336 335 333 330 331 332 333 335 336 334 332 334 335 336 333 331 338 341 329 321 322 324 325 326 326 326 323 323 327 325 325 328 329 335 339 334 338 345 340 337 337
302 302 302 302 302 303 302 302 301 299 297 298 301 303 305 306 308 309 309 311 313 313 312 312 315 320 320 317 316 315 316 316 316 318 322 324 325 328 328 329 332 336 337 333 328 326 327 329 328 326 327 327 328 330 330 329 331 336 337 337 339 339 336 336 330 322 322 327 326 327 326 322 323 332 336 332 333 335 335 341 342 341 348 350 341 338 340
303 303 303 302 302 303 302 302 303 301 299 299 301 302 303 305 306 307 309 311 311 311 312 313 314 316 314 312 312 313 313 314 315 317 321 322 323 325 326 325 332 342 340 330 324 323 323 325 326 326 326 326 327 328 328 329 329 331 333 336 341 342 337 336 332 323 323 330 330 326 322 321 331 347 345 336 337 337 336 338 338 341 348 348 342 343 346
303 303 303 303 303 303 303 302 303 303 301 300 301 301 303 304 305 307 309 311 311 310 311 312 311 311 311 311 311 312 313 314 314 314 316 319 320 323 324 324 328 336 334 326 324 324 325 328 332 332 330 329 330 330 330 332 332 330 329 331 337 340 337 339 340 331 329 334 329 321 320 328 344 350 340 335 336 336 338 339 338 340 344 345 344 345 346
303 303 303 303 303 303 303 302 303 303 302 301 301 301 302 304 305 307 309 310 311 311 311 311 310 310 311 311 311 312 313 313 313 313 315 319 321 322 323 323 323 325 326 325 324 323 329 339 344 341 339 339 339 336 332 333 335 335 332 330 335 338 338 344 346 334 329 329 324 321 325 337 347 342 335 338 338 336 339 337 335 339 341 343 344 341 342
303 303 303 303 303 303 303 303 303 303 303 302 300 300 302 303 305 306 308 310 311 311 311 311 311 311 311 311 311 312 312 312 312 314 317 320 322 322 322 321 321 323 326 326 324 325 333 344 345 341 340 340 336 334 338 338 336 336 334 333 338 342 344 348 340 331 335 334 327 327 331 335 341 340 335 336 334 335 338 336 334 339 340 340 341 338 339
303 303 303 303 303 303 303 303 303 303 303 302 300 299 301 304 305 306 308 309 310 311 311 311 312 312 311 311 312 312 312 312 311 312 315 318 320 321 319 319 321 325 326 325 327 333 337 336 333 334 336 335 331 332 340 339 333 333 334 334 337 339 343 345 335 331 341 338 326 329 331 329 337 346 341 335 329 332 339 339 338 343 341 337 339 338 338
303 302 303 303 303 303 303 303 303 304 304 303 301 300 301 304 306 307 308 309 310 311 310 310 311 311 311 311 312 311 312 312 311 313 318 319 318 317 316 317 322 325 327 328 331 336 340 335 332 334 337 339 336 332 334 335 334 338 340 338 336 335 341 351 346 340 343 339 330 333 333 332 340 346 341 335 330 332 339 336 335 343 340 333 335 337 335
303 303 303 302 302 303 303 303 304 304 304 304 303 301 301 304 305 307 308 308 309 311 310 309 310 311 311 312 312 310 311 311 310 314 320 320 318 316 314 315 321 323 327 335 337 334 335 336 332 332 337 341 336 329 332 336 333 337 349 352 345 344 352 356 347 341 345 346 337 332 334 340 345 342 336 333 332 336 339 332 332 341 338 330 333 336 334
302 303 303 302 302 303 303 303 304 304 304 304 303 302 301 302 304 306 307 308 309 310 310 309 310 311 311 312 311 310 311 311 310 313 317 319 320 318 312 314 322 324 327 337 339 334 334 336 331 330 337 340 334 332 339 339 331 333 349 355 348 349 353 350 345 342 343 342 334 329 335 343 342 337 333 331 334 342 342 335 336 339 334 330 332 332 331
302 302 303 302 302 303 303 304 304 304 304 304 304 302 300 301 305 307 307 308 309 310 309 309 310 310 310 310 310 310 310 310 310 311 314 317 318 315 313 316 322 325 327 334 338 334 335 338 334 331 335 337 336 337 339 340 338 338 343 344 343 345 345 344 346 344 341 343 340 334 337 341 334 332 332 333 337 343 340 337 338 334 331 333 333 331 333
302 302 302 302 302 302 303 303 303 303 303 303 304 303 300 301 305 307 307 307 308 309 309 308 308 308 308 309 309 310 310 310 310 311 313 315 312 312 319 325 324 325 330 336 337 334 333 337 336 332 332 336 339 338 336 338 341 339 340 345 347 345 341 339 340 338 340 346 343 333 336 338 332 334 342 342 341 340 335 334 335 333 333 333 331 332 334
302 302 302 302 302 302 303 303 303 303 303 303 303 303 301 302 305 305 305 306 307 308 308 307 307 308 309 309 309 309 309 309 308 308 310 311 310 312 319 323 322 326 331 334 335 333 329 331 333 331 332 338 338 336 337 339 336 334 341 348 346 344 345 343 340 338 341 346 343 337 339 337 331 336 344 341 336 335 333 333 333 334 336 334 333 334 334
302 302 302 303 303 302 303 303 303 303 303 303 303 303 302 302 303 303 304 305 307 308 308 307 308 308 308 308 308 307 307 307 308 308 308 309 310 311 313 315 317 323 326 327 334 335 328 327 330 331 333 336 335 333 338 342 338 336 340 341 339 342 346 344 340 340 340 341 342 341 337 333 330 332 335 333 333 334 335 335 336 336 337 336 336 336 335
302 302 303 303 303 303 303 303 303 303 303 303 303 303 303 302 301 302 304 305 306 307 307 307 308 308 307 308 307 307 308 310 312 312 309 309 311 311 311 314 317 321 321 321 327 332 328 326 329 331 333 335 332 334 340 343 342 341 339 337 336 336 339 342 342 341 338 335 335 335 331 329 329 330 330 331 332 332 334 337 337 336 336 335 335 335 335
302 303 303 303 302 302 303 303 303 303 303 303 303 303 303 302 301 302 303 304 305 307 307 307 307 307 306 307 310 311 312 313 314 313 311 312 311 310 311 314 316 319 319 317 318 321 323 326 328 328 332 334 331 332 337 340 342 340 336 338 340 334 335 343 343 340 339 339 339 336 331 329 328 327 327 329 328 327 330 332 331 332 334 332 331 331 330
302 303 302 302 303 303 303 303 303 303 303 303 303 303 303 302 301 302 303 304 305 307 308 307 307 305 305 307 311 313 313 313 314 314 313 314 312 311 312 313 313 315 316 315 315 315 320 328 330 329 331 333 331 332 333 335 338 337 335 340 343 336 335 340 341 339 341 342 338 334 329 328 328 326 325 326 325 326 327 326 326 328 328 326 325 325 325
302 303 302 302 303 303 303 303 303 303 303 303 303 303 302 301 301 301 303 304 305 307 308 308 307 306 307 309 311 312 313 314 315 315 314 314 313 312 312 311 311 312 312 313 313 313 317 326 330 331 331 330 329 331 334 335 336 337 338 338 335 334 337 339 338 339 339 336 333 332 330 330 329 326 325 325 325 325 326 326 326 327 326 326 326 325 324
302 302 303 302 302 302 303 303 303 303 303 303 302 302 302 301 300 301 302 304 306 307 308 308 309 307 306 309 311 313 313 313 314 314 313 313 313 312 311 310 310 310 310 312 313 314 318 323 326 329 330 328 327 329 332 334 335 338 343 339 330 331 339 339 335 336 337 335 334 333 333 333 329 326 327 327 327 327 326 325 326 326 327 328 328 327 327
302 302 302 302 302 302 303 303 303 303 303 303 302 301 301 300 300 302 303 305 306 307 308 308 308 307 307 308 311 313 313 312 312 312 312 311 311 311 311 311 311 310 310 311 313 316 320 322 323 325 325 326 331 333 330 331 334 337 342 338 328 327 334 335 333 336 337 335 333 330 329 330 327 325 326 327 326 327 325 323 324 324 324 325 325 325 326
302 302 302 302 302 303 303 303 303 303 302 302 301 301 302 303 303 304 305 306 307 307 307 307 307 307 308 309 311 313 313 314 313 313 312 310 310 310 311 311 311 310 311 311 311 315 319 319 319 320 319 322 333 335 330 332 335 334 333 330 324 326 331 331 331 335 334 331 328 326 324 325 323 323 324 323 323 324 323 322 323 322 322 323 323 323 324
302 302 302 302 303 303 302 302 303 302 302 302 300 302 305 307 306 306 307 307 306 306 306 306 307 307 307 307 309 311 313 313 314 314 312 310 309 310 310 311 311 311 311 312 312 314 317 316 315 316 317 319 326 329 328 330 332 331 327 323 321 325 329 328 329 332 330 325 324 323 322 323 323 323 323 322 323 323 322 322 323 322 322 323 322 322 323
302 302 302 302 303 303 302 302 302 302 302 301 300 302 306 308 307 307 307 306 306 306 306 306 307 308 308 307 308 312 313 314 314 314 312 310 310 311 310 311 311 311 311 312 312 312 315 317 317 317 317 316 320 325 328 328 330 330 327 321 319 321 323 324 325 326 324 322 323 323 322 323 323 322 322 322 322 322 322 322 322 322 322 322 322 322 323
302 302 302 302 303 302 302 302 302 301 302 301 300 302 306 308 307 307 306 306 306 305 306 306 307 309 310 310 310 312 315 315 314 314 312 311 311 312 311 311 312 312 311 312 313 313 314 316 317 317 316 314 319 329 331 326 323 323 322 320 320 320 320 320 322 322 322 323 324 323 321 320 321 321 320 320 322 322 322 322 322 322 322 322 321 322 322
302 302 302 302 302 302 301 301 301 301 301 301 300 302 306 307 307 306 306 306 305 305 305 307 308 310 310 310 311 313 314 315 314 313 311 311 311 312 312 311 311 312 312 313 314 313 313 313 314 316 315 314 319 329 329 321 317 318 319 320 321 321 321 321 321 321 322 323 322 321 320 319 319 319 320 321 322 322 321 321 321 321 321 320 320 321 321
302 302 302 302 302 301 301 301 301 301 301 300 300 303 306 308 307 306 307 306 305 305 305 306 308 310 310 310 314 315 312 312 314 312 312 313 313 312 313 313 311 312 313 313 312 313 314 314 315 316 318 317 319 324 325 321 319 320 320 320 320 320 320 321 321 320 320 321 320 320 320 320 320 320 321 321 320 320 321 321 320 320 320 320 319 319 319
302 302 302 302 301 301 301 301 301 301 301 301 302 305 308 308 307 307 307 307 305 305 306 307 308 309 310 314 319 318 311 310 312 312 312 313 313 313 314 312 311 311 312 312 312 313 315 316 317 319 321 322 322 323 323 321 320 319 320 320 320 320 320 320 319 319 319 319 320 320 319 320 320 319 319 319 318 318 318 318 317 317 317 318 318 318 318
302 302 302 301 301 301 301 301 301 301 302 304 305 307 308 308 307 307 307 306 305 305 306 308 309 310 312 316 319 317 313 312 312 311 312 314 314 314 313 313 314 314 312 312 316 317 317 318 321 322 322 323 323 322 321 320 320 319 319 320 319 319 319 319 318 319 319 318 318 319 318 318 318 317 317 317 316 315 315 314 314 315 315 316 318 318 317
302 301 301 301 301 302 303 304 304 304 305 306 307 307 307 307 307 307 306 306 305 304 305 307 309 310 311 313 314 313 313 314 313 312 313 314 314 314 314 317 320 318 313 315 320 321 320 321 323 322 322 322 322 321 320 320 320 319 319 320 320 319 319 319 319 319 319 319 319 319 318 318 318 318 317 317 316 316 316 316 316 317 317 318 319 319 319
301 301 301 301 302 304 306 306 305 306 307 307 306 306 307 306 307 307 306 306 306 306 305 306 308 307 307 309 312 312 312 314 315 316 315 314 314 315 315 317 320 319 317 319 321 321 322 323 322 322 321 321 320 321 320 320 320 320 319 320 320 319 319 319 319 319 319 319 319 319 319 319 319 319 319 318 318 318 318 317 318 318 318 318 319 319 319
301 301 301 301 303 305 306 305 305 306 306 306 306 306 307 307 308 309 308 308 308 308 308 308 307 305 305 309 312 312 312 314 317 319 318 316 316 317 316 315 316 318 321 321 319 320 324 324 323 323 322 320 320 321 320 320 320 319 319 319 320 320 320 319 319 320 320 319 319 319 319 319 319 319 319 319 319 319 319 318 319 319 319 319 319 319 319
301 302 303 303 304 305 305 305 305 305 305 306 306 306 307 308 309 310 310 310 310 310 310 310 309 307 307 309 312 312 313 314 316 317 318 317 316 317 318 318 318 321 323 320 318 321 324 323 323 323 322 320 320 320 320 320 320 319 318 318 318 318 319 319 319 319 319 319 319 319 319 319 319 319 319 319 319 319 319 319 319 319 319 320 320 320 320
302 303 304 304 304 305 305 305 306 306 306 307 307 307 308 309 310 310 309 311 313 312 310 310 311 310 309 310 310 311 312 314 313 315 318 318 316 317 319 319 320 323 322 319 318 323 325 323 322 322 321 320 320 320 320 320 320 319 318 318 318 317 318 318 318 318 318 318 319 319 319 319 319 319 319 319 319 319 319 319 319 319 319 319 320 320 320
303 304 304 304 305 305 306 306 306 307 307 307 307 308 308 308 308 308 309 311 313 311 309 311 313 312 311 311 311 310 312 314 314 315 318 317 315 317 322 323 322 321 319 317 320 324 325 322 322 321 320 319 320 321 320 320 320 319 319 319 319 319 319 318 318 319 318 318 319 318 318 318 318 318 318 319 318 318 319 319 319 319 319 319 319 319 319
303 303 303 305 306 306 307 307 306 307 308 308 307 307 309 310 310 310 310 311 311 309 309 311 312 311 311 312 312 312 313 314 313 314 316 315 313 316 323 325 321 317 316 319 322 323 323 322 321 320 319 319 320 321 321 320 320 320 320 320 320 320 320 319 319 319 319 318 319 318 318 319 318 318 319 319 318 318 319 319 319 319 319 319 319 318 318
303 303 304 305 306 306 307 307 306 306 308 308 307 307 309 311 311 311 311 311 312 312 311 311 310 311 313 314 314 313 313 313 313 314 315 316 317 319 321 321 319 317 319 322 322 321 321 321 320 319 319 320 320 321 321 321 320 319 319 320 320 319 318 317 317 318 318 318 318 319 319 319 319 319 319 319 319 319 319 319 319 320 319 319 319 319 319
303 303 303 305 306 305 306 307 306 306 308 309 309 309 309 309 310 311 311 311 311 312 313 312 312 313 315 314 313 313 313 313 315 316 316 318 321 320 316 316 319 321 323 323 321 320 321 320 318 318 319 320 320 321 321 320 319 318 318 319 318 318 317 317 317 317 317 318 318 318 319 319 319 319 319 319 319 319 319 319 319 320 319 318 319 319 319
303 302 303 305 306 305 305 307 308 308 309 309 309 309 308 308 310 311 312 311 311 312 313 313 313 314 314 314 314 313 312 314 317 317 316 318 320 316 313 317 321 322 323 323 321 320 320 319 318 319 320 319 320 321 321 318 317 317 318 318 318 318 318 318 318 318 318 318 318 318 319 319 319 319 319 318 318 319 318 318 318 318 318 319 319 319 319
304 303 303 305 306 306 306 307 308 308 307 307 308 308 308 308 309 310 311 312 312 313 313 313 314 314 313 314 314 314 312 315 319 317 316 319 320 316 315 320 322 321 322 323 321 320 320 319 318 319 320 319 319 321 320 318 317 317 317 318 318 319 319 319 318 318 318 318 318 319 319 319 319 319 319 319 319 318 317 317 317 318 319 319 319 319 319
304 304 305 305 306 306 306 307 307 307 307 308 309 309 309 309 310 311 311 312 312 313 313 312 314 315 315 314 316 316 314 314 316 315 315 318 319 316 317 320 321 320 321 322 321 320 320 319 318 319 318 317 318 319 319 317 317 317 316 317 317 317 318 318 318 318 318 318 318 319 319 318 318 318 318 319 319 318 318 318 318 319 320 319 318 319 320
305 305 305 306 306 306 306 306 307 307 308 309 309 310 310 310 310 311 312 312 312 313 312 311 313 316 315 313 316 318 316 314 315 316 317 318 318 316 318 321 321 320 320 322 321 320 319 318 318 318 316 315 317 318 317 317 317 317 316 316 317 317 317 317 317 318 318 318 318 318 318 318 318 318 318 318 319 318 319 319 319 319 319 319 318 319 319
304 304 305 305 306 307 307 307 309 310 310 309 309 310 310 310 310 311 312 312 311 312 312 311 312 315 314 313 315 317 315 314 317 320 319 318 318 318 320 322 321 320 320 320 320 319 318 317 316 316 315 315 317 317 317 317 317 316 316 317 317 317 317 317 317 317 317 317 317 318 318 317 318 318 318 318 318 318 318 318 318 319 319 319 318 319 318
304 305 305 305 306 307 307 308 310 311 310 308 308 309 310 311 311 312 312 311 311 313 314 312 312 315 317 316 314 313 311 313 317 320 318 317 318 320 322 321 319 319 319 319 318 318 317 316 315 315 314 316 318 318 317 316 316 316 316 316 316 316 317 317 317 317 317 316 316 317 317 317 317 317 317 317 317 317 317 318 318 318 319 319 319 319 318
303 305 306 306 306 307 308 308 309 309 309 309 309 310 311 311 311 312 312 312 312 313 313 312 314 317 317 313 310 311 313 315 317 318 318 317 318 319 319 319 318 318 319 319 319 319 319 318 317 316 315 316 317 318 317 316 316 316 316 316 316 315 316 316 316 316 316 316 316 316 316 316 317 316 315 315 315 316 317 317 317 318 318 319 319 319 319
Wind_Speed
24 23 22 20 20 19 20 21 22 26 31 29 27 27 21 13 11 8 5 6 7 5 2 3 2 2 5 5 5 7 5 3 4 5 6 5 4 5 6 6 8 7 7 7 6 4 5 6 6 6 7 9 14 19 24 24 16 9 7 9 8 5 4 5 7 7 6 7 8 6 4 5 4 6 6 6 6 6 7 5 5 4 3 2 2 3 6
24 24 23 21 20 19 19 20 21 23 27 27 26 25 20 18 18 10 2 3 5 7 2 3 4 3 5 5 6 8 7 5 7 6 5 6 4 4 4 6 8 6 4 6 7 4 4 5 5 6 7 8 16 24 29 26 14 10 11 10 9 6 3 5 6 6 6 6 6 6 3 3 4 4 5 7 8 8 5 3 4 3 5 6 5 5 6
23 24 24 23 21 20 18 19 20 20 23 24 23 21 18 16 13 8 6 5 4 5 1 1 2 2 3 3 4 5 6 8 12 11 9 10 8 5 6 8 9 6 2 6 9 6 4 4 4 5 6 7 11 15 22 23 14 12 18 19 17 9 4 6 7 7 8 7 6 6 3 2 3 3 6 9 10 11 6 3 4 4 4 6 6 5 6
21 22 24 23 22 21 19 18 19 19 21 22 20 16 12 7 4 6 9 7 1 1 4 7 4 2 3 3 3 3 2 5 10 11 10 13 13 9 8 10 9 6 5 6 7 6 5 4 4 5 6 5 6 11 11 14 13 10 11 14 13 4 3 8 10 11 10 9 9 7 3 4 5 5 8 10 11 12 8 5 5 6 4 4 6 7 5
20 21 22 22 23 22 20 19 18 18 19 20 18 13 7 3 1 3 5 7 5 3 5 8 5 3 3 3 3 4 3 3 6 6 6 10 11 7 7 9 8 7 7 5 4 5 4 3 4 6 6 5 7 14 14 5 10 7 8 13 9 2 3 9 12 15 15 13 12 9 4 6 8 9 10 11 10 11 9 7 7 7 7 5 9 6 10
20 20 20 20 22 23 21 19 18 18 18 17 14 9 3 3 4 4 3 4 2 2 5 9 7 5 5 3 3 4 4 3 3 4 7 11 10 6 4 7 8 10 11 7 4 4 2 4 5 5 5 4 6 10 9 3 2 2 6 14 9 3 4 8 10 15 17 15 16 14 8 6 8 8 11 13 12 13 13 12 9 10 9 8 8 9 12
20 19 18 18 20 22 22 20 18 17 17 13 10 6 3 3 5 6 5 4 5 8 12 12 9 6 5 4 4 3 3 4 4 4 5 7 7 3 1 5 8 6 10 9 4 4 4 2 4 3 3 5 4 4 5 4 6 8 2 5 5 4 6 7 9 12 14 15 17 16 12 10 9 9 11 12 13 16 16 12 10 12 11 8 10 14 13
20 19 17 17 19 21 21 20 18 17 15 11 5 4 6 5 4 7 8 7 9 12 11 8 6 6 4 3 3 3 2 3 7 7 5 6 6 4 2 6 9 8 5 7 5 5 6 5 4 4 4 4 1 1 3 4 7 7 3 2 1 4 6 6 9 8 10 12 15 15 13 13 13 13 13 12 12 13 12 7 6 7 5 2 9 12 11
19 18 17 18 19 19 20 20 18 16 15 12 5 3 7 6 3 4 7 6 7 8 6 4 3 4 3 2 2 4 3 4 9 10 8 6 4 4 5 7 6 7 6 3 6 3 4 7 9 11 10 9 6 4 4 4 7 6 3 3 1 3 4 2 6 6 8 10 13 14 11 10 12 13 14 12 9 8 6 4 6 8 5 5 7 8 9
18 18 18 18 18 18 18 18 17 16 14 13 9 6 8 7 1 2 4 4 5 4 3 3 3 2 2 3 5 5 7 10 10 7 6 5 6 7 8 7 3 3 5 3 3 8 9 10 14 17 19 19 16 13 12 10 6 4 3 3 0 4 2 2 5 6 7 8 10 11 7 5 8 10 9 9 7 7 5 3 3 6 8 8 6 7 9
18 18 17 17 17 16 16 17 17 16 13 12 10 8 9 9 5 5 4 3 4 4 3 2 2 2 5 9 9 8 10 12 9 5 4 6 10 14 12 7 2 1 5 9 16 20 20 17 16 17 20 21 17 17 18 13 9 8 4 2 1 3 4 4 4 5 7 5 6 8 6 6 8 6 4 7 8 9 9 6 2 2 1 4 4 4 5
17 17 17 16 16 15 15 14 14 15 14 12 10 9 8 7 7 7 4 4 4 4 3 3 3 5 10 12 11 9 10 13 13 12 9 9 12 15 12 5 2 3 9 16 22 22 16 9 7 9 13 13 11 13 14 10 8 10 6 1 3 2 1 3 1 3 4 3 6 7 6 8 5 5 5 2 10 14 12 8 5 6 5 2 1 1 6
18 18 17 16 15 14 14 13 13 15 15 12 11 10 7 6 6 6 6 5 5 3 3 6 10 11 13 12 10 11 14 17 19 18 14 10 10 10 8 5 4 10 18 21 20 15 7 1 1 3 6 6 4 6 9 8 6 4 1 0 2 1 1 1 2 2 3 4 5 7 6 4 3 5 6 4 6 12 12 8 6 7 6 3 2 1 3
18 17 17 16 15 14 13 13 13 15 15 13 12 11 7 6 7 8 7 5 4 5 5 7 9 9 8 9 10 10 13 15 14 12 10 9 8 8 9 10 11 16 19 15 11 6 1 1 2 0 2 4 4 4 6 7 4 1 2 3 2 4 2 1 1 1 3 5 3 3 1 3 4 2 2 3 3 2 8 7 4 6 7 6 3 2 5
19 17 16 16 15 14 14 13 12 13 14 14 14 12 8 6 6 8 8 6 5 7 8 7 5 4 6 10 10 7 8 7 7 8 9 10 9 9 11 15 16 19 15 5 2 1 2 1 1 2 1 2 3 4 4 4 3 0 2 5 5 4 2 2 2 1 2 5 4 3 3 1 3 6 7 4 5 6 3 9 2 6 7 8 2 4 8
19 17 16 15 15 14 14 13 13 13 13 14 16 13 6 3 6 7 9 9 6 5 7 8 6 9 10 12 11 7 4 4 5 6 6 6 9 14 19 19 16 19 17 5 1 3 2 2 2 3 3 2 3 3 3 1 3 4 3 8 9 6 3 3 4 1 2 5 5 4 2 2 5 8 10 8 9 8 1 8 1 5 7 7 2 4 7
19 17 16 15 16 15 14 14 13 12 13 13 16 14 5 4 6 7 8 9 8 10 18 21 18 14 9 6 8 6 5 6 6 3 3 5 10 16 24 23 15 18 19 8 1 4 3 2 1 1 3 3 4 2 3 1 2 5 5 7 9 7 5 4 4 3 2 3 3 2 3 3 6 7 9 11 10 4 6 5 4 5 7 4 5 7 6
19 17 16 16 16 15 14 14 12 12 12 12 15 16 8 4 6 8 8 9 7 12 22 20 12 10 7 4 8 8 6 7 5 2 5 7 6 11 20 18 10 13 16 7 2 4 3 1 1 2 3 4 2 4 2 1 0 2 2 4 5 4 4 2 3 2 2 3 3 1 1 3 5 7 13 13 6 7 7 4 5 5 9 4 11 14 12
19 18 17 16 16 15 14 13 12 12 12 12 15 17 10 5 5 6 8 10 7 12 22 19 14 18 18 14 16 15 11 11 8 4 4 3 5 16 18 9 4 7 9 5 3 3 2 2 2 1 1 3 1 2 2 2 2 2 3 4 2 0 2 3 2 2 3 3 4 2 2 3 5 13 17 10 4 5 3 3 3 10 9 9 18 21 21
18 18 17 16 16 15 13 13 12 12 12 12 14 16 12 6 7 5 6 9 9 18 31 31 26 27 22 16 16 16 12 12 9 4 2 4 11 18 10 1 3 6 4 3 3 3 2 2 3 2 1 2 2 2 1 3 2 3 4 4 2 4 2 3 2 0 1 3 4 3 2 4 11 14 12 6 4 5 5 7 11 12 10 12 21 25 26
17 17 16 14 14 13 13 13 12 11 12 11 12 16 12 7 8 6 7 9 10 16 22 19 15 16 18 19 23 23 21 21 18 13 11 14 16 12 2 1 5 3 1 2 1 0 2 3 2 2 2 2 1 3 2 2 1 3 3 3 3 4 3 2 2 0 2 3 1 2 4 8 14 8 3 4 8 12 15 15 14 15 17 18 20 24 27
16 16 14 13 13 12 12 13 12 11 12 11 11 15 13 9 9 8 9 12 15 20 23 23 24 29 31 31 30 28 26 26 25 22 21 19 17 13 9 8 6 3 1 0 2 2 2 2 2 2 3 2 2 3 3 2 3 2 0 2 2 3 5 5 3 0 2 4 2 3 4 8 10 14 17 18 21 23 24 25 22 22 24 23 22 22 23
15 15 14 13 12 12 12 12 12 11 11 11 11 14 15 13 10 9 10 14 18 25 31 33 34 35 32 26 20 18 18 18 18 19 20 17 14 14 13 9 4 3 1 3 4 2 2 2 1 1 2 2 2 3 3 1 2 1 1 1 1 2 5 6 5 1 1 4 4 5 5 7 14 25 29 29 29 27 29 33 31 27 27 28 26 24 22
14 14 14 13 12 11 11 12 11 11 11 11 11 13 15 14 11 9 10 12 13 17 21 24 25 24 21 16 10 9 11 12 13 12 14 16 14 10 7 4 2 2 1 4 5 3 3 3 1 1 2 2 1 2 4 3 2 1 2 0 1 2 2 3 5 5 3 3 3 4 6 7 11 22 29 31 32 31 32 34 31 29 29 29 28 26 24
13 13 13 13 11 11 11 11 11 11 10 10 11 13 14 14 10 9 10 9 8 8 8 13 19 16 13 15 13 9 8 10 10 11 13 18 20 15 10 7 4 3 2 2 3 4 3 1 2 2 2 3 1 0 4 4 2 3 2 0 1 1 3 3 4 3 4 4 4 2 11 11 9 15 22 27 30 32 32 32 30 29 29 28 28 26 23
12 12 12 12 11 10 11 11 11 10 10 11 12 13 15 14 10 10 10 8 9 9 6 10 16 13 11 15 14 9 9 10 12 14 14 16 18 17 15 11 7 5 4 4 2 2 3 2 2 3 0 3 1 2 5 3 2 3 1 2 4 3 2 4 4 4 6 6 6 7 12 12 9 13 18 23 26 28 28 26 24 24 23 22 22 21 19
11 11 11 11 10 11 11 11 10 10 11 12 12 13 15 13 10 10 10 6 6 7 4 7 15 19 20 18 12 8 9 13 13 14 16 15 15 16 14 11 7 6 5 4 2 2 3 2 1 3 4 5 4 3 4 3 3 3 3 3 7 5 1 3 6 7 5 4 6 9 9 6 4 9 16 17 17 18 21 21 18 16 15 13 11 10 9
10 9 10 10 9 10 10 10 10 10 10 11 12 13 14 12 8 8 9 9 7 7 7 13 23 27 23 16 10 8 10 13 13 14 16 15 14 15 14 11 9 7 5 3 1 1 3 2 2 3 5 5 3 3 5 4 2 1 4 5 5 4 4 3 5 6 5 7 11 13 12 9 7 11 16 16 15 17 21 24 23 22 21 20 18 16 14
9 8 8 8 8 9 9 9 9 10 10 11 12 11 9 7 7 9 10 7 5 9 13 17 20 18 14 11 9 8 9 11 12 14 14 15 15 16 15 14 12 9 5 2 1 1 2 3 4 4 4 5 4 1 3 4 2 2 6 9 5 4 5 5 5 8 7 12 19 20 19 18 17 20 22 23 23 25 26 26 26 26 25 25 24 22 20
8 7 7 7 7 8 8 8 8 9 9 10 11 8 3 3 7 10 9 6 3 8 11 9 8 12 17 17 12 8 8 10 13 13 12 13 15 15 14 13 13 12 7 3 2 2 3 4 5 5 6 6 5 3 2 0 1 3 11 14 5 11 6 2 8 14 15 18 24 27 28 27 26 28 28 26 25 25 26 26 25 24 23 22 22 22 19
7 6 6 7 7 7 8 8 7 8 9 9 8 6 2 3 7 10 8 5 6 8 10 7 9 15 18 14 10 8 6 8 11 13 12 12 12 12 11 11 11 11 9 5 3 3 4 4 3 4 5 4 3 3 3 3 3 0 9 13 6 19 21 17 20 26 28 29 29 30 29 27 26 26 26 25 24 23 24 23 21 19 19 20 20 20 19
6 6 6 6 8 8 7 7 7 8 9 8 8 8 5 2 5 9 7 6 9 10 8 6 7 8 7 8 12 9 6 7 9 12 14 12 10 9 10 10 8 9 8 5 3 3 4 4 4 5 5 4 2 2 3 3 4 3 1 2 13 25 28 27 27 27 27 27 27 24 23 24 26 25 23 22 20 19 19 20 17 15 15 15 16 17 17
6 6 6 7 8 7 7 7 8 8 8 9 9 10 7 2 3 8 9 8 10 9 6 4 3 2 4 10 13 5 5 6 8 10 11 12 10 8 7 9 9 7 6 5 3 3 3 3 4 5 4 4 2 3 4 4 3 5 8 13 23 30 31 30 29 26 24 23 23 22 20 22 25 24 20 18 17 15 14 13 11 9 9 11 12 13 14
6 7 7 7 7 6 6 7 7 8 8 7 5 7 5 3 2 5 7 7 7 6 5 4 2 2 5 10 9 3 1 2 7 10 8 8 11 9 5 6 6 4 5 7 4 3 3 2 2 2 4 7 6 5 4 6 6 9 14 16 22 30 34 32 30 29 28 27 27 26 24 21 19 18 17 16 16 14 12 11 10 9 10 11 12 12 12
7 6 6 5 6 6 6 7 8 7 6 4 2 5 6 3 2 2 4 6 6 4 3 4 3 2 4 6 3 3 7 5 5 10 7 5 8 9 6 4 2 2 5 6 3 2 2 2 3 3 4 5 6 5 3 7 10 14 19 18 20 26 29 26 25 27 26 25 24 23 19 15 14 15 15 14 14 13 12 12 12 12 12 12 12 13 13
6 5 4 4 5 6 6 6 6 5 3 2 1 3 4 3 3 5 7 9 9 6 3 3 3 2 1 3 3 5 10 8 1 7 6 4 5 7 7 3 1 3 5 3 0 3 4 6 6 3 4 4 5 5 7 9 12 16 20 21 21 23 22 21 22 23 23 21 21 19 17 15 15 14 12 11 11 12 12 12 13 14 14 14 14 14 15
4 3 3 4 5 5 3 1 1 2 2 1 2 3 4 5 6 7 8 10 10 10 7 3 3 3 3 3 4 6 7 5 2 1 2 2 2 5 5 2 1 3 3 3 2 4 9 13 10 5 5 6 7 9 14 16 17 18 20 23 24 23 21 19 17 17 17 19 20 18 16 15 14 13 11 11 11 12 12 13 13 13 12 12 13 14 15
3 2 3 3 3 2 0 1 1 3 3 2 3 4 4 4 4 4 6 6 6 7 8 5 4 6 5 4 6 7 6 4 3 1 1 1 0 2 2 1 2 3 1 2 5 7 8 8 6 5 6 7 11 16 18 19 20 21 22 23 24 23 21 19 16 15 16 18 18 17 17 16 15 13 12 11 10 10 11 10 10 11 11 11 12 13 14
1 1 1 2 2 1 1 2 4 5 4 3 3 3 2 2 2 2 4 4 3 4 6 6 6 8 7 5 6 9 6 3 3 2 2 1 2 0 1 1 1 2 1 2 3 5 4 3 2 4 4 5 10 16 18 19 21 22 22 21 20 19 19 19 18 18 17 15 12 12 13 14 13 12 11 10 10 9 9 9 10 11 11 11 12 12 13
1 1 2 3 4 3 3 3 4 4 3 1 2 2 2 3 3 3 3 2 2 4 6 5 5 9 12 10 7 5 4 2 2 2 1 1 2 1 0 1 0 2 3 2 3 4 4 2 2 4 3 3 8 14 18 20 21 21 20 18 17 15 14 13 13 11 10 8 7 7 7 7 8 8 9 10 10 10 10 10 10 11 11 11 11 12 14
2 3 4 6 6 4 3 2 2 3 2 1 1 1 1 2 4 3 3 1 2 3 5 4 2 5 10 13 12 7 5 4 3 1 0 1 3 3 1 1 1 2 3 2 2 4 4 3 2 3 3 5 10 14 16 18 19 20 20 18 16 14 12 10 8 6 5 5 6 6 6 6 7 7 7 8 9 9 10 11 11 12 12 13 14 15 16
4 6 6 6 5 4 3 2 2 2 2 1 0 1 1 2 2 2 2 2 2 2 3 4 4 5 6 6 8 7 5 5 4 1 1 2 4 3 1 1 1 3 3 1 1 3 3 2 3 3 3 6 9 11 13 15 16 16 16 16 16 15 14 12 10 9 8 8 8 9 9 9 8 8 8 8 9 10 10 11 12 13 14 14 15 16 17
6 6 6 4 4 5 4 2 2 2 1 1 1 1 2 1 1 1 2 2 4 1 3 4 7 8 6 3 3 4 3 4 5 3 2 3 3 2 2 2 2 3 4 2 2 3 3 3 3 2 3 6 8 9 10 11 11 11 11 11 12 14 15 15 14 13 12 11 11 11 11 10 10 9 8 9 10 10 10 11 12 13 14 14 15 16 17
6 5 4 3 3 4 3 2 2 1 0 0 1 1 2 3 3 2 2 3 4 3 1 5 9 8 3 1 3 3 3 4 5 4 3 4 4 2 2 1 1 1 3 4 3 2 2 2 2 2 3 5 7 8 9 9 9 9 10 10 12 14 16 17 17 17 15 14 13 12 11 11 10 10 10 10 10 10 11 11 12 12 13 14 15 15 16
6 6 4 2 3 4 3 2 2 1 1 0 1 1 1 1 2 3 4 6 8 7 3 5 9 5 1 2 3 3 3 4 4 3 1 1 2 2 1 0 1 2 3 3 2 2 2 1 1 2 3 5 7 8 8 9 10 11 11 13 15 16 16 17 17 17 17 15 14 13 11 11 11 11 12 11 11 11 11 11 11 12 12 13 13 14 14
6 6 4 1 2 3 2 1 1 1 0 1 2 3 2 2 4 6 7 10 12 12 7 1 2 3 4 3 2 3 4 4 2 2 1 1 2 1 1 2 3 3 3 3 2 2 1 1 2 1 4 6 7 7 8 10 12 13 14 15 15 14 14 15 15 15 15 15 14 13 11 10 10 11 11 10 10 10 10 10 10 10 10 11 12 13 13
5 4 3 1 1 3 2 1 2 4 5 6 8 6 2 2 6 9 10 12 13 12 7 4 6 7 6 4 3 3 4 4 2 1 2 2 2 1 3 3 3 2 2 3 2 0 2 2 1 3 5 7 7 8 9 11 12 13 14 14 13 12 13 13 14 14 15 15 14 14 13 12 11 10 10 9 9 9 9 9 8 8 8 9 12 13 13
4 3 2 1 0 1 2 4 6 7 7 9 9 8 7 6 8 11 13 14 13 11 9 6 4 4 5 5 3 1 3 4 3 2 2 2 2 1 3 3 2 2 2 2 1 2 3 1 1 4 5 6 6 8 9 10 11 12 12 12 12 12 12 12 13 13 14 14 14 14 14 13 12 11 10 9 8 8 8 8 8 7 7 9 11 12 12
5 3 2 1 1 2 5 7 7 7 12 16 14 11 9 7 9 14 16 15 11 10 10 8 5 2 2 4 3 2 2 3 2 1 3 3 3 2 2 2 2 2 2 0 2 2 1 1 3 4 4 5 6 8 9 9 9 10 11 11 11 12 11 11 11 11 11 12 13 13 13 13 13 12 11 11 10 9 8 8 8 8 7 9 10 11 12
6 4 3 3 2 4 8 9 6 6 12 17 17 14 11 9 10 15 16 13 10 10 10 9 7 4 2 3 3 2 2 2 2 2 3 3 2 1 2 3 2 1 0 1 2 3 3 3 3 3 4 4 6 7 8 7 7 8 9 10 10 11 10 10 10 9 9 11 12 12 12 12 13 12 12 12 12 10 8 8 8 7 7 8 10 11 12
7 4 4 5 5 5 6 6 3 3 6 11 14 14 14 16 18 18 16 14 14 12 7 4 4 3 3 3 3 2 2 2 3 3 3 2 1 2 3 3 1 1 2 3 5 4 3 3 4 3 4 4 5 6 7 6 6 7 8 9 10 11 11 10 9 8 7 8 9 10 11 11 12 12 12 12 11 11 11 11 10 10 9 9 10 11 11
5 4 5 7 9 10 9 7 5 6 10 13 14 14 15 18 20 18 16 17 17 12 5 3 3 3 3 2 1 1 2 3 3 3 2 2 2 2 2 2 1 2 4 5 4 3 3 4 5 5 5 4 4 4 5 4 4 5 6 8 10 12 12 11 9 8 6 6 7 8 9 10 10 11 13 13 14 14 15 15 14 13 12 11 12 11 11
Wind_Direction
323 323 323 324 327 331 335 339 345 346 342 342 342 341 343 337 312 293 295 295 263 244 281 282 247 232 261 275 273 266 260 252 260 261 260 253 235 231 228 232 237 235 240 249 249 244 248 250 246 255 261 248 241 230 216 209 199 169 181 202 189 168 144 181 230 260 271 266 269 267 218 181 211 246 212 174 176 170 161 176 180 184 202 141 129 235 264
322 323 323 323 324 328 333 337 344 349 347 345 343 338 335 323 310 297 324 335 223 201 230 262 239 263 275 277 282 270 257 252 257 249 230 223 224 238 236 228 232 233 240 261 267 270 260 252 259 277 284 274 262 242 218 208 201 181 187 182 172 191 184 161 200 247 267 272 278 285 283 163 190 236 214 193 187 166 142 123 136 191 213 163 159 227 251
318 321 322 323 322 323 331 335 339 348 348 343 339 332 330 327 312 293 325 351 207 200 49 27 261 302 310 296 281 271 265 249 247 249 245 238 235 243 252 244 240 240 254 278 281 283 274 279 299 293 284 288 290 263 225 212 206 204 198 176 164 182 193 164 186 214 222 227 229 235 242 193 198 210 204 202 185 168 161 129 143 209 227 155 158 212 251
314 318 320 323 322 321 327 333 336 344 346 340 335 328 326 330 315 305 326 341 321 207 48 46 15 336 352 324 266 247 258 261 267 270 255 243 236 230 240 249 249 243 237 260 280 280 264 270 293 302 297 285 306 314 274 222 210 231 218 171 155 161 184 180 193 208 211 210 220 221 166 157 204 210 203 208 194 177 158 127 165 188 166 175 210 197 193
310 314 317 322 323 321 325 331 333 339 344 340 332 325 318 299 304 350 339 333 343 6 36 38 20 309 306 310 262 264 273 279 295 293 271 261 255 236 225 233 230 216 210 218 244 251 256 280 289 293 294 277 295 322 323 247 200 214 185 165 153 94 202 195 197 209 214 211 217 218 163 170 207 204 199 207 200 177 162 169 188 160 137 211 250 198 173
308 310 314 320 323 320 321 328 331 335 344 343 334 328 303 267 313 360 353 310 321 2 337 339 332 295 288 275 247 266 278 294 307 296 301 296 277 249 224 239 237 211 195 187 202 224 252 322 306 284 280 299 320 327 329 313 300 354 156 169 162 139 214 211 199 212 220 219 222 223 210 210 220 209 205 204 191 180 186 194 180 152 163 213 224 189 185
305 309 314 316 319 319 320 326 329 333 343 346 340 338 323 283 300 322 332 309 283 287 297 304 305 295 290 268 250 266 284 302 310 305 318 310 288 266 223 274 291 256 203 190 195 194 177 257 285 270 286 308 326 327 305 294 340 5 36 188 170 167 212 203 191 216 227 222 228 232 225 230 239 231 221 208 191 188 195 197 178 172 190 201 178 181 197
305 310 312 311 315 318 319 325 328 330 340 346 342 349 350 337 310 319 331 316 286 283 288 296 302 300 289 251 261 305 293 303 327 319 291 281 296 332 308 277 304 308 247 186 170 177 161 168 230 262 302 311 267 248 274 283 326 345 326 284 146 186 223 196 171 210 237 223 226 232 227 229 236 237 233 219 199 193 193 183 167 182 205 156 153 179 212
308 310 310 309 313 318 319 324 329 330 336 344 347 351 346 339 285 302 324 303 278 285 295 303 300 287 277 260 319 335 319 324 329 309 270 254 278 309 291 280 303 317 290 176 136 145 160 177 223 245 258 263 252 248 249 270 313 321 298 306 32 168 244 225 150 185 234 223 221 228 227 230 240 245 240 224 199 187 185 164 165 176 164 110 122 174 220
307 308 309 309 312 316 318 322 329 331 334 341 341 336 345 348 285 270 318 292 279 307 317 303 284 267 303 350 342 320 304 313 319 304 295 312 323 320 304 286 294 308 281 277 331 316 292 261 256 256 254 254 256 262 261 255 258 270 285 301 197 140 182 229 156 182 234 229 207 205 200 212 244 250 229 202 177 157 145 134 169 168 147 138 159 207 221
303 303 305 307 309 313 316 318 325 329 330 335 333 327 343 351 328 310 321 283 279 317 333 306 272 302 337 338 328 313 305 309 311 306 307 310 317 324 320 309 321 237 259 293 314 313 301 286 280 276 264 257 258 265 268 261 231 215 221 276 272 134 160 213 184 178 224 228 166 155 159 196 232 260 220 173 151 134 118 93 38 3 87 169 193 205 179
299 298 299 303 305 309 312 314 318 319 320 324 321 315 331 343 320 302 293 272 288 325 326 281 266 299 313 311 307 306 301 298 298 297 283 274 292 307 316 330 2 294 304 315 319 320 314 299 292 288 272 259 256 261 267 266 234 210 192 218 308 340 148 219 193 159 195 168 128 149 197 222 245 320 329 132 121 113 99 74 44 13 350 319 328 198 180
297 296 295 295 298 302 305 306 308 310 313 315 309 303 312 324 305 281 267 270 276 282 292 289 285 286 290 292 296 298 293 294 300 297 279 267 280 293 310 328 301 309 325 325 320 323 330 339 344 297 288 301 310 278 266 268 259 233 151 103 263 330 28 174 90 102 162 136 140 182 214 259 333 12 0 4 92 106 94 58 10 4 12 4 347 289 192
292 294 292 290 291 293 294 297 302 305 308 308 301 299 304 305 283 262 263 271 268 274 288 295 292 286 286 298 305 302 300 305 314 311 289 280 281 275 295 316 323 333 335 322 309 320 57 66 14 319 299 335 332 292 279 280 278 314 7 348 112 107 88 133 93 108 152 132 137 176 97 6 345 354 343 317 301 171 116 91 343 334 22 23 356 70 93
286 288 290 287 287 287 286 288 294 299 303 303 299 298 301 294 266 248 254 266 281 285 264 241 268 331 331 314 308 307 312 318 328 322 302 289 287 292 313 329 343 353 351 320 276 8 123 116 51 155 155 327 252 251 277 289 292 285 59 23 41 79 101 165 153 156 115 106 111 101 71 81 243 274 279 281 308 292 128 101 15 314 14 18 349 129 117
282 282 286 287 285 283 280 281 284 290 296 298 299 300 289 249 248 244 252 264 274 279 245 232 282 325 318 304 299 298 300 311 325 324 310 301 307 318 331 340 354 7 8 9 120 50 86 139 153 180 186 179 198 249 275 269 310 311 12 33 22 13 23 105 112 67 63 103 127 135 123 211 242 274 287 304 322 308 52 95 161 279 353 11 33 126 121
281 278 281 285 283 279 278 279 280 284 290 292 295 296 279 222 249 252 259 266 257 259 267 271 287 299 293 291 303 302 296 310 327 329 304 312 309 317 332 341 359 18 16 12 55 36 58 140 136 168 224 206 163 207 283 359 4 311 338 27 19 353 350 40 53 18 55 95 100 122 136 242 260 267 284 302 317 351 79 103 219 283 350 16 124 108 98
280 278 281 283 280 278 279 279 278 281 283 285 289 289 281 247 251 252 261 270 262 267 273 273 277 279 264 276 300 299 302 315 334 336 291 292 295 312 325 331 345 15 19 25 48 21 25 213 177 158 234 271 146 150 229 293 64 279 333 51 40 4 341 10 58 22 16 76 91 105 212 252 264 284 295 304 338 66 92 184 229 355 14 76 120 110 107
278 279 282 281 277 277 277 275 278 279 276 279 284 284 279 254 238 239 261 269 261 265 269 267 267 274 276 281 283 280 285 294 297 304 293 274 321 323 320 315 325 355 9 35 41 7 1 321 308 145 228 299 326 136 164 166 202 224 115 95 72 358 315 329 49 46 9 73 96 33 297 260 304 313 311 321 58 109 173 190 78 39 36 89 101 100 102
277 277 278 276 274 275 272 272 276 275 273 277 280 282 281 252 219 223 269 279 273 273 274 274 273 273 274 277 274 274 284 289 283 289 271 265 315 329 334 7 340 336 355 46 29 354 346 319 312 345 347 303 309 309 177 155 209 221 144 133 171 161 151 327 319 130 45 59 55 47 211 275 325 328 321 348 81 149 151 96 69 53 47 75 90 94 97
274 273 273 273 272 271 270 272 274 272 272 272 275 282 281 232 206 235 273 273 271 275 277 276 275 274 274 277 278 278 278 276 272 271 272 281 302 320 337 234 304 309 45 48 49 11 344 313 298 329 321 305 316 290 265 129 178 228 168 141 145 142 150 210 228 197 74 89 75 173 212 298 335 0 67 61 77 110 110 95 79 70 67 71 80 88 93
272 270 268 267 267 268 270 272 273 272 271 267 270 279 276 240 228 262 276 264 258 260 265 272 282 283 280 280 282 281 276 275 276 272 264 269 285 287 270 279 294 261 230 14 131 113 15 311 290 328 312 312 346 295 271 141 159 239 56 125 155 175 179 159 136 56 139 150 205 265 290 329 18 79 97 90 91 100 101 96 88 80 79 79 78 81 88
269 268 265 264 265 268 270 272 273 271 270 269 268 273 275 266 260 273 276 269 268 270 272 277 282 283 283 284 281 272 268 273 278 270 252 246 264 280 271 268 281 271 247 104 121 136 145 189 231 322 280 270 337 318 300 181 176 214 146 155 124 142 160 134 115 168 148 83 25 358 14 35 74 92 97 97 97 98 96 94 91 87 85 80 73 73 78
264 263 265 266 266 267 269 272 273 271 269 270 268 272 278 276 276 287 283 273 281 288 285 281 277 276 284 288 263 239 261 273 264 253 235 223 234 263 272 263 284 301 26 89 100 122 142 168 164 38 308 295 33 347 303 290 307 24 97 152 16 75 133 100 113 148 137 70 332 346 30 45 77 95 101 102 98 95 95 94 92 91 89 82 75 72 68
265 267 271 268 265 270 272 270 270 272 273 273 270 271 275 272 275 289 287 281 292 303 301 291 282 274 278 280 260 244 278 278 241 222 218 219 227 240 257 274 291 295 304 20 61 89 100 90 88 78 327 306 84 342 277 263 296 356 36 182 269 166 137 97 102 124 106 125 185 89 59 56 67 88 99 103 101 99 100 98 95 94 90 82 77 73 66
268 268 270 266 264 271 275 273 273 274 275 276 274 273 275 272 266 266 271 281 287 277 267 282 283 280 285 282 269 258 266 256 231 222 224 224 229 241 257 270 273 272 295 328 358 127 128 86 69 95 358 299 281 247 257 256 316 328 270 267 326 326 153 129 118 102 83 105 156 126 78 63 64 80 89 95 98 100 101 102 101 100 96 88 80 74 65
267 266 266 265 265 269 272 273 274 274 276 279 278 278 277 271 255 250 256 261 270 266 254 270 283 296 304 293 271 243 236 230 224 226 229 229 232 239 252 261 256 261 294 329 330 169 143 133 139 151 188 251 265 266 273 289 330 308 265 318 6 12 198 151 126 135 136 145 172 154 117 89 98 106 101 99 98 93 91 91 88 89 95 96 94 87 64
262 263 264 263 263 268 271 272 272 275 281 284 282 283 279 267 243 229 232 235 248 265 283 291 292 300 306 295 263 232 221 220 224 230 231 232 233 236 246 256 257 265 289 318 328 140 137 167 204 175 187 214 237 312 321 317 338 326 287 312 17 24 280 244 134 137 159 150 145 140 124 117 126 119 108 106 106 97 90 88 85 82 82 82 85 86 78
257 259 260 259 261 266 272 277 278 281 287 290 290 288 278 250 217 202 202 212 255 282 293 297 295 295 299 293 267 235 216 220 232 236 233 231 231 234 244 254 255 256 266 272 181 177 217 229 234 231 208 187 163 57 333 328 360 347 305 315 8 42 305 283 113 96 93 118 123 118 109 103 103 102 99 97 97 96 91 87 84 82 80 80 81 82 82
255 256 257 259 261 264 269 275 281 284 287 293 296 293 272 165 176 191 197 197 243 288 298 300 290 295 304 302 284 256 239 233 233 234 232 228 227 230 240 252 254 250 249 244 202 226 270 260 243 250 243 213 179 157 163 123 40 334 314 322 30 110 127 190 131 114 108 110 110 104 99 96 94 93 89 86 87 89 85 81 80 80 81 81 79 76 75
246 248 254 259 260 264 269 273 280 284 283 287 289 278 252 143 172 190 198 212 246 286 302 287 276 294 303 301 290 278 262 236 228 231 233 229 226 230 239 248 248 237 230 226 219 238 263 256 239 264 269 237 191 155 148 135 117 108 307 317 51 103 106 109 115 115 112 111 105 96 90 89 90 88 80 76 80 82 79 77 75 74 74 72 69 65 61
238 242 252 257 257 262 269 274 279 278 277 281 271 243 222 185 188 196 206 243 269 290 303 288 284 294 292 301 310 298 246 222 230 232 233 234 229 227 233 238 238 233 227 222 226 240 243 237 244 271 285 277 231 125 90 78 100 132 242 35 89 93 94 100 106 108 110 112 107 94 79 77 81 80 74 72 75 75 73 72 68 65 67 63 57 55 50
236 241 249 254 258 264 270 276 279 277 278 284 265 231 211 151 171 200 215 248 274 286 282 272 299 290 267 307 323 313 196 212 227 221 228 236 228 221 227 228 228 230 222 212 224 253 249 243 254 269 302 343 13 89 69 19 23 89 91 86 89 91 92 94 97 98 101 105 105 99 89 83 84 83 79 77 72 65 63 63 54 44 44 42 40 40 35
241 244 249 256 264 270 272 275 280 279 280 285 258 210 188 125 137 202 228 256 276 279 258 243 268 284 286 308 328 11 90 241 210 203 221 235 223 215 210 204 206 208 211 218 237 266 255 248 266 293 345 6 21 60 54 349 360 63 77 78 86 92 92 89 87 88 90 90 92 93 92 90 88 83 78 75 69 61 57 52 40 30 30 29 27 22 15
241 247 257 269 275 275 274 276 278 279 283 289 219 183 182 174 171 225 278 285 279 267 247 240 241 264 307 312 321 7 1 347 211 204 213 214 209 207 184 159 172 208 206 211 231 277 284 323 26 12 356 13 33 49 14 335 1 46 63 66 75 86 88 84 81 83 85 86 86 84 84 84 79 69 62 59 55 48 44 39 30 22 16 11 6 0 354
248 262 277 280 280 281 282 278 272 276 303 341 156 175 192 229 260 278 286 281 269 255 258 277 258 229 275 294 287 324 344 350 264 209 210 197 199 200 182 152 158 196 175 165 299 337 13 55 68 34 2 37 50 18 1 5 21 41 53 60 70 82 88 89 88 87 83 79 76 72 70 70 64 55 48 43 36 28 21 17 15 11 5 358 351 345 340
265 282 285 282 288 295 295 278 267 303 329 312 246 245 258 266 272 275 273 270 261 249 244 260 277 258 256 268 289 319 335 338 331 207 193 182 187 187 178 158 168 175 141 80 81 73 62 69 81 72 45 60 55 28 26 33 39 45 52 59 68 77 82 85 90 90 81 70 63 60 59 60 57 50 40 31 22 12 7 7 6 1 354 348 342 338 334
278 285 278 289 307 305 166 118 322 312 305 279 275 292 280 258 259 264 249 240 242 239 229 225 255 265 257 256 283 302 315 320 328 15 100 82 350 185 179 162 163 167 119 74 116 106 68 55 66 74 62 48 37 34 37 42 47 51 56 59 63 65 66 66 65 64 62 58 50 45 45 46 44 41 33 25 17 10 3 358 350 342 339 336 331 327 322
296 303 302 323 324 292 289 317 302 289 281 271 280 296 271 218 222 243 215 202 209 224 214 213 237 240 226 230 279 293 297 314 340 6 77 56 13 92 181 221 168 145 90 72 104 92 65 39 41 58 58 25 20 29 37 43 47 50 52 54 56 56 57 56 54 54 59 60 50 40 37 32 24 18 11 5 2 358 348 339 335 335 334 330 325 319 314
52 15 351 334 322 308 303 302 289 282 289 273 263 280 255 218 223 206 176 177 228 213 201 207 243 246 237 234 251 286 307 316 322 340 74 53 2 14 138 238 243 94 83 66 54 59 72 84 49 43 45 5 9 25 38 43 45 45 44 45 46 45 45 48 51 54 61 61 47 33 28 18 8 2 355 350 347 343 337 335 333 330 327 325 321 317 313
30 9 350 332 329 333 333 316 301 307 312 262 235 275 257 225 233 219 183 190 265 224 206 207 239 254 245 232 225 242 297 323 320 305 44 22 4 19 57 248 288 70 85 92 74 68 73 77 63 58 48 18 16 26 39 45 45 44 42 40 39 36 33 33 33 30 26 20 11 5 2 357 352 349 347 346 342 337 334 331 326 323 322 320 316 314 313
11 352 341 334 340 357 10 19 8 335 304 240 268 296 252 215 246 246 211 219 257 233 187 195 229 268 274 245 227 241 289 342 2 2 48 16 2 16 63 318 357 67 90 125 111 77 65 69 78 70 43 34 35 39 44 48 49 50 47 44 43 42 41 39 39 34 26 19 14 10 7 3 357 353 351 348 342 336 332 329 328 327 326 322 319 318 316
354 340 341 352 10 23 26 12 358 356 358 105 28 323 308 314 296 252 216 246 279 275 143 185 249 279 299 301 265 267 318 12 22 35 54 14 347 8 61 31 22 68 78 61 52 56 58 72 86 68 46 49 51 51 54 60 62 61 56 52 50 49 48 47 46 41 32 22 14 9 5 3 360 356 353 348 342 337 332 330 330 331 331 330 328 325 322
355 351 5 13 5 10 13 349 344 2 358 326 70 41 349 335 318 309 344 332 319 337 127 217 251 267 291 333 322 337 12 23 25 35 31 2 351 20 68 39 342 41 62 61 58 52 51 68 76 68 62 57 50 52 63 69 62 57 59 61 58 54 52 49 46 40 33 25 16 7 0 356 352 349 347 345 342 337 332 330 331 331 332 332 331 330 329
12 8 8 357 345 360 10 346 334 345 317 260 157 167 263 299 273 280 321 336 334 339 331 237 233 230 97 26 353 360 6 11 31 54 43 359 17 26 30 91 70 41 55 76 79 55 52 65 35 48 57 48 40 47 58 56 47 46 54 58 54 51 48 46 43 38 31 23 14 7 359 351 347 346 346 344 341 335 332 331 330 328 331 334 335 337 339
18 10 12 26 357 355 355 339 2 19 218 259 282 267 235 225 260 284 317 342 341 337 338 348 137 98 66 43 28 20 4 4 37 70 56 78 84 19 352 64 73 48 50 77 78 63 86 241 270 15 53 48 42 46 49 46 44 45 48 48 46 44 42 41 38 35 30 23 17 12 6 358 352 350 348 345 343 339 334 331 328 326 331 339 342 343 345
9 360 9 47 357 340 351 18 336 307 299 315 327 330 326 268 291 311 337 349 342 337 351 46 71 66 57 47 35 12 2 12 41 29 15 61 105 354 10 50 59 37 53 74 73 112 224 242 297 41 48 43 43 46 43 42 43 44 42 41 39 37 37 36 32 29 26 23 19 18 17 14 7 360 354 352 349 344 340 340 339 337 339 343 346 349 353
3 351 8 49 161 269 349 340 311 309 342 12 24 35 41 13 343 350 359 356 352 4 29 49 56 50 37 30 29 359 352 13 30 9 5 55 84 29 30 50 41 17 58 95 160 224 226 231 45 47 37 31 38 43 41 40 42 41 39 38 35 31 30 29 25 23 23 22 20 20 20 18 15 12 9 8 6 359 355 357 360 357 350 347 351 357 4
15 10 18 45 212 266 338 341 319 333 14 30 40 52 53 26 353 357 4 5 12 35 45 42 43 43 357 353 16 33 1 6 23 12 15 41 57 52 56 71 58 38 48 142 221 216 183 105 65 48 32 30 39 40 36 38 41 39 37 35 29 24 22 19 18 19 20 19 19 18 17 18 21 23 24 25 24 17 6 359 356 353 349 350 354 359 5
21 20 24 24 352 330 351 358 351 353 9 11 11 15 23 19 6 8 13 20 38 54 52 43 43 46 351 354 34 39 347 350 46 48 30 34 46 56 69 78 76 52 254 202 161 135 113 83 57 41 33 36 39 36 34 38 41 38 36 33 27 24 22 17 14 15 18 18 18 17 17 21 26 28 28 30 32 30 21 10 2 357 352 353 355 355 359
19 20 17 13 7 351 347 350 339 320 339 345 348 356 9 16 16 16 20 32 45 51 46 21 12 23 31 38 41 2 328 9 44 49 39 31 22 42 71 85 115 227 172 129 118 110 84 45 26 19 19 26 32 29 28 30 32 32 31 30 29 29 28 20 13 12 15 18 22 24 25 26 30 32 32 33 36 39 40 37 34 32 27 19 12 8 9
12 357 350 1 12 12 2 351 338 332 339 347 355 5 16 21 20 21 30 41 45 41 20 351 22 55 61 34 344 323 14 34 35 31 36 33 20 35 74 109 167 162 133 118 105 78 39 22 10 356 351 357 9 10 11 16 24 26 24 22 23 26 27 23 16 12 13 22 33 37 36 35 39 41 39 35 35 38 41 40 40 40 39 34 28 25 22